Location: Turtle Rock Observatory
(36.6913°N, 81.9708°W)
Time: 11:52:22

Lacrosse 5 rocket - Visible Passes

Search period start: 28 October 2016 00:00
Search period end: 06 November 2016 23:00
Orbit: 466 x 639 km, 57.0° (Epoch: 25 October)

Date Brightness Start Highest point End Pass type
(mag) Time Alt. Az. Time Alt. Az. Time Alt. Az.
04 Nov 4.4 21:06:51 10° NNW 21:06:55 10° NNW 21:06:55 10° NNW visible
05 Nov 4.2 21:02:17 10° NNW 21:02:51 13° NNW 21:02:51 13° NNW visible
06 Nov 3.7 18:20:31 10° N 18:21:56 11° NNE 18:23:08 10° NE visible
06 Nov 3.9 19:57:46 10° NNW 19:58:53 17° NNW 19:58:53 17° NNW visible
